Weather in Kolenkovtsy

Ukraine / Chernovtci District     48°24′46″N   26°07′45″E
temp.,
°C
wind,
m/s
gust,
m/s
humid.,
%
clouds,
%
prec.,
mm/h
press.,
hPa
HPBL,
m
1 march, mon
mon123:00+3nw81493100 0.6 1026839
02:00+2nw51197100 4.1 1027609
05:00+2nw41097100 1.1 1027563
08:00+2nnw51097100 1.4 1029599
11:00+4n588494 0.3 1031755
14:00+5n577097 0.4 10321033
17:00+4nnw467192 0.0 1033671
20:00+3nw258296 0.1 1034195
2 march, tue
tue223:00+2nw258696 0.1 1035173
02:00+2w248485 0.1 1035100
05:000wnw399114 0.0 1034236
08:00+1wnw411858 0.0 1033381
11:00+5wnw6106713 0.0 1031504
14:00+9wnw712566 0.0 1029746
17:00+9wnw7155812 0.0 1027783
20:00+6nw717706 0.0 1029667
3 march, wed
wed323:00+5nw615773 0.0 1030614
02:00+3wnw512861 0.0 1031387
05:00+1wnw37930 0.0 1031195
08:00+1nw26949 0.0 1032240
11:00+5nw357956 0.0 1031586
14:00+6nw457064 0.0 1030660
17:00+6nw247058 0.0 1028507
20:00+3s008341 0.0 102922
4 march, thu
thu423:00+2s22870 0.0 102722
02:00+1sse23910 0.0 102531
05:00+1sse23930 0.0 102228
08:00+2sw01860 0.0 102022
11:00+7wnw23560 0.0 1017342
14:00+11wnw464611 0.0 1015859
17:00+10w245513 0.0 1013117
20:00+7w226511 0.0 101423
5 march, fri
fri523:00+5ssw11707 0.0 101422
02:00+4wnw117526 0.0 101322
05:00+4sse227198 0.0 101122
08:00+4sw226999 0.0 101122
11:00+10sw61052100 0.0 1009705
14:00+11wsw61148100 0.0 10081397
17:00+10nw6106298 0.0 1008784
20:00+6nw6118585 0.1 1011713